This is the latest recevied weather packets stored in our database for station/object KN6KS. If no packets are shown the sender has not sent any weather packets the latest 10 day(s).
| Time | Temp. | Humidity | Pressure | Rain* | Wind** | Luminosity | Snow |
|---|---|---|---|---|---|---|---|
| 1777177500 | 10° C | 73% | 1007.6 hPa | 0 mm | - | 0 W/m² | - |
| 1777177196 | 10° C | 72% | 1007.6 hPa | 0 mm | - | 0 W/m² | - |
| 1777176893 | 10° C | 71% | 1007.7 hPa | 0 mm | - | 0 W/m² | - |
| 1777176589 | 10° C | 69% | 1007.8 hPa | 0 mm | - | 0 W/m² | - |
| 1777176285 | 10° C | 70% | 1008.1 hPa | 0 mm | - | 0 W/m² | - |
| 1777175983 | 10° C | 70% | 1007.7 hPa | 0 mm | - | 0 W/m² | - |
| 1777175680 | 10° C | 69% | 1008.1 hPa | 0 mm | - | 0 W/m² | - |
| 1777175374 | 10° C | 69% | 1007.6 hPa | 0 mm | - | 0 W/m² | - |
| 1777175070 | 10° C | 68% | 1007.9 hPa | 0 mm | - | 0 W/m² | - |
| 1777174767 | 10° C | 70% | 1007.8 hPa | 0 mm | - | 0 W/m² | - |
| 1777174462 | 10° C | 69% | 1008.2 hPa | 0 mm | - | 0 W/m² | - |
| 1777174157 | 10° C | 71% | 1008.1 hPa | 0 mm | - | 0 W/m² | - |
| 1777173854 | 10° C | 73% | 1008.1 hPa | 0 mm | - | 0 W/m² | - |
| 1777173553 | 10° C | 74% | 1008.3 hPa | 0 mm | - | 0 W/m² | - |
| 1777173249 | 10° C | 74% | 1008.3 hPa | 0 mm | - | 0 W/m² | - |
| 1777172945 | 10° C | 73% | 1008.3 hPa | 0 mm | - | 0 W/m² | - |
| 1777172643 | 10° C | 73% | 1008.3 hPa | 0 mm | - | 0 W/m² | - |
| 1777172338 | 10° C | 72% | 1008.4 hPa | 0 mm | - | 0 W/m² | - |
| 1777172034 | 10° C | 72% | 1008.1 hPa | 0 mm | - | 0 W/m² | - |
| 1777171731 | 10.56° C | 68% | 1008.2 hPa | 0 mm | - | 0 W/m² | - |
| 1777171426 | 10.56° C | 68% | 1007.9 hPa | 0 mm | - | 0 W/m² | - |
| 1777171122 | 10.56° C | 67% | 1007.9 hPa | 0 mm | - | 0 W/m² | - |
| 1777170821 | 10.56° C | 66% | 1007.8 hPa | 0 mm | - | 1 W/m² | - |
| 1777170517 | 10.56° C | 66% | 1007.9 hPa | 0 mm | - | 5 W/m² | - |
| 1777170213 | 10.56° C | 65% | 1007.9 hPa | 0 mm | - | 8 W/m² | - |
* Rain latest hour (hover to see other rain measurements)
** Current wind speed in m/s (hover to see current wind gust speed)